{"data":{"norad_id":54377,"intl_designator":"2022-161A","name":"COSMOS 2564 (761)","alt_names":[],"object_type":"PAYLOAD","status":"ACTIVE","operator":null,"country":"CIS","launch_date":"2022-11-28","launch_site_code":"PLMSC","launch_vehicle":null,"mission":null,"orbit_class":"UNKNOWN","rcs_meters":null,"size_class":null,"mass_kg":null,"dimensions":null,"purposes":["nav"],"wikipedia_slug":null,"has_3d_model":false,"image_url":null,"decayed_at":null,"tle_current":{"epoch":"2026-09-20T00:45:25.907904Z","epoch_age_seconds":55238,"freshness":"FRESH","line1":"1 54377U 22161A   26263.03154986 -.00000012  00000+0  00000+0 0  9995","line2":"2 54377  64.7422 189.5662 0010748 217.5056 142.4312  2.13102087 29659","mean_motion":2.13102087,"eccentricity":0.0010748,"inclination_deg":64.7422,"raan_deg":189.5662,"arg_perigee_deg":217.5056,"mean_anomaly_deg":142.4312,"bstar":0,"rev_number":2965,"period_min":675.73247182699,"perigee_km":19102.464467818,"apogee_km":19157.296502204,"semimajor_km":25508.017485011,"source":"CELESTRAK","updated_at":"2026-09-20T09:00:46.279727Z"}}}